Date String (YYYY-MM-DD hh:mm:ss) UTC,Instrument flags,Ambient pressure (hPa),Sample flow (lpm),Bypass flow (lpm),Sample temperature (°C),Ambient temperature (°C),ASC tube jacket temperature (°C),LED temperature (°C),Box temperature (°C),Sample RH (%),Span deviation,Mass concentration (μg/m³),Mass concentration (μg/m³),Mass concentration (μg/m³)
DateTimeUTC,F1_M11,P_M11,Q1_M11,Q2_M11,T1_M11,T2_M11,T3_M11,T4_M11,T5_M11,U1_M11,ZSPAN_M11,X2_M11,X0_M11,X1_M11
2023-02-11 08:00:00,,0827.7,4.98,0.00,22.3,20.7,00.0,31.2,24.0,09.1,0000.0,0004.48,0013.41,0003.55
2023-02-11 08:01:00,,0827.7,4.99,0.00,22.3,20.6,00.0,31.2,24.0,09.1,0000.0,0004.48,0013.14,0003.55
2023-02-11 08:02:00,,0827.7,4.99,0.00,22.2,20.6,00.0,31.1,24.0,09.1,0000.0,0004.51,0012.98,0003.58
2023-02-11 08:03:00,,0827.7,5.04,0.00,22.2,20.6,00.0,31.1,24.0,09.1,0000.0,0004.59,0013.70,0003.60
2023-02-11 08:04:00,,0827.7,5.07,0.00,22.3,21.6,00.0,31.1,24.2,09.1,0000.0,0004.62,0013.46,0003.62
2023-02-11 08:05:00,,0827.7,4.97,0.00,22.4,22.7,00.0,31.1,24.5,09.1,0000.0,0004.64,0013.53,0003.64
2023-02-11 08:06:00,,0827.7,4.98,0.00,22.5,23.0,00.0,31.1,24.6,09.0,0000.0,0004.64,0012.69,0003.67
2023-02-11 08:07:00,,0827.7,5.00,0.00,22.6,22.6,00.0,31.2,24.6,09.0,0000.0,0004.66,0012.36,0003.69
2023-02-11 08:08:00,,0827.8,4.99,0.00,22.6,22.1,00.0,31.2,24.5,09.1,0000.0,0004.72,0012.43,0003.72
2023-02-11 08:09:00,,0827.7,4.94,0.00,22.6,21.8,00.0,31.3,24.4,09.1,0000.0,0004.80,0012.58,0003.75
2023-02-11 08:10:00,,0827.7,4.98,0.00,22.6,21.5,00.0,31.3,24.4,09.0,0000.0,0004.85,0012.43,0003.77
2023-02-11 08:11:00,,0827.7,5.05,0.00,22.5,21.3,00.0,31.3,24.3,09.0,0000.0,0004.86,0011.91,0003.79
2023-02-11 08:12:00,,0827.7,5.03,0.00,22.5,21.1,00.0,31.3,24.3,09.2,0000.0,0004.87,0012.10,0003.81
2023-02-11 08:13:00,,0827.7,5.02,0.00,22.5,21.0,00.0,31.3,24.3,09.3,0000.0,0004.91,0012.34,0003.82
2023-02-11 08:14:00,,0827.8,4.99,0.00,22.5,20.9,00.0,31.3,24.3,09.3,0000.0,0004.89,0011.69,0003.84
2023-02-11 08:15:00,,0827.7,5.02,0.00,22.5,20.8,00.0,31.3,24.2,09.2,0000.0,0004.86,0011.53,0003.83
2023-02-11 08:16:00,,0827.7,5.02,0.00,22.4,20.7,00.0,31.3,24.2,09.2,0000.0,0004.81,0011.78,0003.81
2023-02-11 08:17:00,,0827.7,5.02,0.00,22.4,20.6,00.0,31.3,24.1,09.2,0000.0,0004.80,0012.64,0003.79
2023-02-11 08:18:00,,0827.7,5.01,0.00,22.4,20.6,00.0,31.3,24.1,09.2,0000.0,0004.80,0013.58,0003.78
2023-02-11 08:19:00,,0827.7,5.00,0.00,22.3,20.5,00.0,31.3,24.1,09.2,0000.0,0004.82,0014.86,0003.77
2023-02-11 08:20:00,,0827.7,5.01,0.00,22.3,20.4,00.0,31.3,24.0,09.2,0000.0,0004.78,0015.20,0003.77
2023-02-11 08:21:00,,0827.7,4.99,0.00,22.3,20.4,00.0,31.2,24.0,09.2,0000.0,0004.72,0014.93,0003.76
2023-02-11 08:22:00,,0827.7,5.02,0.00,22.3,20.3,00.0,31.2,24.0,09.2,0000.0,0004.73,0015.15,0003.75
2023-02-11 08:23:00,,0827.7,5.02,0.00,22.3,20.6,00.0,31.2,24.0,09.2,0000.0,0004.70,0015.47,0003.73
2023-02-11 08:24:00,,0827.7,5.02,0.00,22.3,21.7,00.0,31.1,24.2,09.2,0000.0,0004.69,0015.72,0003.73
2023-02-11 08:25:00,,0827.7,5.03,0.00,22.4,22.6,00.0,31.1,24.4,09.1,0000.0,0004.67,0016.20,0003.72
2023-02-11 08:26:00,,0827.7,5.02,0.00,22.5,22.4,00.0,31.2,24.4,09.1,0000.0,0004.68,0016.09,0003.76
2023-02-11 08:27:00,,0827.6,5.05,0.00,22.5,21.7,00.0,31.2,24.2,09.1,0000.0,0004.76,0015.45,0003.80
2023-02-11 08:28:00,,0827.6,5.03,0.00,22.4,21.2,00.0,31.2,24.1,09.0,0000.0,0004.76,0014.54,0003.82
2023-02-11 08:29:00,,0827.5,4.99,0.00,22.4,20.9,00.0,31.2,24.0,09.1,0000.0,0004.72,0013.71,0003.81
2023-02-11 08:30:00,,0827.6,5.04,0.00,22.3,20.6,00.0,31.2,23.9,09.2,0000.0,0004.63,0012.15,0003.79
2023-02-11 08:31:00,,0827.6,4.98,0.00,22.3,20.5,00.0,31.2,23.9,09.1,0000.0,0004.58,0011.95,0003.76
2023-02-11 08:32:00,,0827.5,5.02,0.00,22.2,20.4,00.0,31.2,23.9,09.0,0000.0,0004.62,0012.67,0003.78
2023-02-11 08:33:00,,0827.6,5.02,0.00,22.2,20.4,00.0,31.2,23.9,09.0,0000.0,0004.68,0012.35,0003.83
2023-02-11 08:34:00,,0827.6,4.98,0.00,22.2,20.3,00.0,31.2,23.8,09.0,0000.0,0004.78,0012.11,0003.88
2023-02-11 08:35:00,,0827.6,4.98,0.00,22.2,20.3,00.0,31.1,23.8,09.1,0000.0,0004.75,0011.42,0003.88
2023-02-11 08:36:00,,0827.6,4.99,0.00,22.1,20.2,00.0,31.1,23.7,09.1,0000.0,0004.81,0011.44,0003.90
2023-02-11 08:37:00,,0827.6,4.98,0.00,22.1,20.6,00.0,31.1,23.8,09.2,0000.0,0004.82,0012.45,0003.88
2023-02-11 08:38:00,,0827.6,4.97,0.00,22.2,21.8,00.0,31.0,24.1,09.2,0000.0,0004.73,0012.78,0003.82
2023-02-11 08:39:00,,0827.6,5.01,0.00,22.3,22.7,00.0,31.1,24.3,09.0,0000.0,0004.74,0013.44,0003.83
2023-02-11 08:40:00,,0827.6,4.93,0.00,22.4,22.4,00.0,31.1,24.3,09.0,0000.0,0004.80,0013.98,0003.86
2023-02-11 08:41:00,,0827.7,5.06,0.00,22.4,21.8,00.0,31.1,24.2,09.0,0000.0,0004.88,0014.27,0003.91
2023-02-11 08:42:00,,0827.6,5.06,0.00,22.3,21.4,00.0,31.2,24.1,09.0,0000.0,0004.93,0014.45,0003.93
2023-02-11 08:43:00,,0827.7,4.99,0.00,22.3,21.0,00.0,31.2,24.0,09.0,0000.0,0004.87,0013.85,0003.89
2023-02-11 08:44:00,,0827.6,5.02,0.00,22.3,20.7,00.0,31.2,23.9,09.0,0000.0,0004.75,0013.72,0003.83
2023-02-11 08:45:00,,0827.7,5.00,0.00,22.2,20.6,00.0,31.1,23.9,09.0,0000.0,0004.62,0013.32,0003.77
2023-02-11 08:46:00,,0827.5,5.00,0.00,22.2,20.5,00.0,31.1,23.8,09.0,0000.0,0004.58,0013.35,0003.75
2023-02-11 08:47:00,,0827.5,5.00,0.00,22.2,20.4,00.0,31.1,23.8,09.0,0000.0,0004.51,0013.11,0003.72
2023-02-11 08:48:00,,0827.5,4.98,0.00,22.1,20.2,00.0,31.1,23.8,09.0,0000.0,0004.44,0012.53,0003.71
2023-02-11 08:49:00,,0827.6,4.99,0.00,22.1,20.1,00.0,31.1,23.7,09.1,0000.0,0004.47,0012.16,0003.73
2023-02-11 08:50:00,,0827.6,5.03,0.00,22.1,21.0,00.0,31.0,23.9,09.1,0000.0,0004.46,0012.27,0003.71
2023-02-11 08:51:00,,0827.6,5.00,0.00,22.2,22.2,00.0,31.0,24.2,09.0,0000.0,0004.43,0012.26,0003.65
2023-02-11 08:52:00,,0827.7,4.97,0.00,22.3,22.8,00.0,31.0,24.4,08.9,0000.0,0004.37,0012.50,0003.60
2023-02-11 08:53:00,,0827.6,5.03,0.00,22.4,22.4,00.0,31.1,24.3,08.8,0000.0,0004.30,0012.05,0003.55
2023-02-11 08:54:00,,0827.5,4.99,0.00,22.4,22.0,00.0,31.1,24.2,08.8,0000.0,0004.34,0012.39,0003.54
2023-02-11 08:55:00,,0827.5,5.00,0.00,22.4,21.6,00.0,31.2,24.1,08.8,0000.0,0004.36,0012.72,0003.54
2023-02-11 08:56:00,,0827.5,4.99,0.00,22.4,21.3,00.0,31.2,24.1,08.8,0000.0,0004.39,0013.17,0003.53
2023-02-11 08:57:00,,0827.5,5.04,0.00,22.3,21.0,00.0,31.2,24.0,08.8,0000.0,0004.41,0013.26,0003.53
2023-02-11 08:58:00,,0827.5,5.01,0.00,22.3,20.9,00.0,31.2,24.0,08.8,0000.0,0004.43,0013.39,0003.53
2023-02-11 08:59:00,,0827.5,5.01,0.00,22.3,20.8,00.0,31.2,24.0,08.8,0000.0,0004.45,0013.01,0003.53
